When you browse on this site, cookies collect data to enhance your experience and personalize the content and advertising you see.
Visit our Privacy Policy to learn more. By continuing to use the site, you agree to this use of cookies and data.
  • în România
  • Lista ţărilor
  • Pe 7 zile
  • Temperatura apei
  • Hartă satelitară
  • Meteo pe hartă
  • Widget-uri
  • user-avatar
    Intrare

    Meteo pe oră la Gorakhpur

    Astăzi, 24 Aprilie, Miercuri

    Timp Temperatura Precipitaţii Vânt Presiune Umiditate
    00:00 +32°C° 0 mm 2 m/s 748 mmHg 34%
    01:00 +32°C° 0 mm 2 m/s 748 mmHg 35%
    02:00 +31°C° 0 mm 2 m/s 748 mmHg 36%
    03:00 +31°C° 0 mm 3 m/s 748 mmHg 37%
    04:00 +30°C° 0 mm 3 m/s 748 mmHg 38%
    05:00 +30°C° 0 mm 3 m/s 748 mmHg 38%
    06:00 +29°C° 0 mm 3 m/s 749 mmHg 44%
    07:00 +32°C° 0 mm 4 m/s 749 mmHg 41%
    08:00 +34°C° 0 mm 4 m/s 749 mmHg 38%
    09:00 +35°C° 0 mm 5 m/s 749 mmHg 35%
    10:00 +37°C° 0 mm 4 m/s 749 mmHg 31%
    11:00 +40°C° 0 mm 4 m/s 749 mmHg 28%
    12:00 +41°C° 0 mm 4 m/s 749 mmHg 26%
    13:00 +42°C° 0 mm 3 m/s 749 mmHg 24%
    14:00 +41°C° 0 mm 2 m/s 748 mmHg 23%
    15:00 +42°C° 0 mm 2 m/s 748 mmHg 21%
    16:00 +41°C° 0 mm 2 m/s 747 mmHg 22%
    17:00 +41°C° 0 mm 2 m/s 747 mmHg 23%
    18:00 +40°C° 0 mm 2 m/s 746 mmHg 23%
    19:00 +39°C° 0 mm 2 m/s 746 mmHg 25%
    20:00 +38°C° 0 mm 3 m/s 747 mmHg 28%
    21:00 +37°C° 0 mm 3 m/s 747 mmHg 30%
    22:00 +36°C° 0 mm 3 m/s 747 mmHg 31%
    23:00 +35°C° 0 mm 3 m/s 747 mmHg 32%

    Mâine, 25 Aprilie, Joi

    Timp Temperatura Precipitaţii Vânt Presiune Umiditate
    00:00 +35°C° 0 mm 2 m/s 747 mmHg 33%
    01:00 +34°C° 0 mm 3 m/s 746 mmHg 34%
    02:00 +34°C° 0 mm 3 m/s 746 mmHg 36%
    03:00 +33°C° 0 mm 3 m/s 746 mmHg 37%
    04:00 +33°C° 0 mm 3 m/s 746 mmHg 38%
    05:00 +31°C° 0 mm 3 m/s 746 mmHg 39%
    06:00 +30°C° 0 mm 2 m/s 746 mmHg 40%
    07:00 +34°C° 0 mm 3 m/s 747 mmHg 36%
    08:00 +36°C° 0 mm 3 m/s 747 mmHg 32%
    09:00 +38°C° 0 mm 4 m/s 748 mmHg 28%
    10:00 +39°C° 0 mm 3 m/s 748 mmHg 26%
    11:00 +42°C° 0 mm 3 m/s 748 mmHg 23%
    12:00 +42°C° 0 mm 2 m/s 748 mmHg 21%
    13:00 +43°C° 0 mm 2 m/s 747 mmHg 19%
    14:00 +45°C° 0 mm 3 m/s 746 mmHg 18%
    15:00 +45°C° 0 mm 3 m/s 746 mmHg 17%
    16:00 +45°C° 0 mm 3 m/s 745 mmHg 17%
    17:00 +44°C° 0 mm 3 m/s 745 mmHg 17%
    18:00 +44°C° 0 mm 3 m/s 745 mmHg 17%
    19:00 +43°C° 0 mm 3 m/s 745 mmHg 20%
    20:00 +40°C° 0 mm 3 m/s 745 mmHg 23%
    21:00 +38°C° 0 mm 4 m/s 745 mmHg 25%
    22:00 +38°C° 0 mm 3 m/s 745 mmHg 27%
    23:00 +37°C° 0 mm 3 m/s 745 mmHg 29%

    Poimâine, 26 Aprilie, Vineri

    Timp Temperatura Precipitaţii Vânt Presiune Umiditate
    00:00 +36°C° 0 mm 3 m/s 745 mmHg 30%
    01:00 +35°C° 0 mm 3 m/s 745 mmHg 31%
    02:00 +34°C° 0 mm 3 m/s 745 mmHg 33%
    03:00 +34°C° 0 mm 2 m/s 744 mmHg 34%
    04:00 +33°C° 0 mm 3 m/s 744 mmHg 35%
    05:00 +33°C° 0 mm 3 m/s 744 mmHg 36%
    06:00 +31°C° 0 mm 3 m/s 744 mmHg 37%
    07:00 +34°C° 0 mm 3 m/s 745 mmHg 33%
    08:00 +36°C° 0 mm 4 m/s 746 mmHg 30%
    09:00 +38°C° 0 mm 4 m/s 746 mmHg 27%
    10:00 +41°C° 0 mm 4 m/s 746 mmHg 24%
    11:00 +43°C° 0 mm 3 m/s 746 mmHg 22%
    12:00 +44°C° 0 mm 3 m/s 746 mmHg 20%
    13:00 +45°C° 0 mm 3 m/s 745 mmHg 17%
    14:00 +46°C° 0 mm 3 m/s 744 mmHg 15%
    15:00 +48°C° 0 mm 4 m/s 744 mmHg 12%
    16:00 +48°C° 0 mm 4 m/s 743 mmHg 12%
    17:00 +46°C° 0 mm 3 m/s 743 mmHg 12%
    18:00 +46°C° 0 mm 3 m/s 743 mmHg 12%
    19:00 +44°C° 0 mm 3 m/s 743 mmHg 15%
    20:00 +41°C° 0 mm 2 m/s 744 mmHg 17%
    21:00 +39°C° 0 mm 2 m/s 744 mmHg 19%
    22:00 +39°C° 0 mm 2 m/s 744 mmHg 21%
    23:00 +38°C° 0 mm 2 m/s 744 mmHg 23%

    27 Aprilie, Sâmbătă

    Timp Temperatura Precipitaţii Vânt Presiune Umiditate
    00:00 +37°C° 0 mm 2 m/s 744 mmHg 25%
    01:00 +36°C° 0 mm 3 m/s 744 mmHg 27%
    02:00 +35°C° 0 mm 3 m/s 743 mmHg 30%
    03:00 +35°C° 0 mm 3 m/s 743 mmHg 32%
    04:00 +34°C° 0 mm 3 m/s 743 mmHg 33%
    05:00 +34°C° 0 mm 3 m/s 744 mmHg 35%
    06:00 +33°C° 0 mm 3 m/s 744 mmHg 36%
    07:00 +35°C° 0 mm 4 m/s 744 mmHg 34%
    08:00 +37°C° 0 mm 5 m/s 745 mmHg 32%
    09:00 +40°C° 0 mm 6 m/s 746 mmHg 29%
    10:00 +41°C° 0 mm 5 m/s 745 mmHg 26%
    11:00 +43°C° 0 mm 4 m/s 745 mmHg 23%
    12:00 +45°C° 0 mm 3 m/s 745 mmHg 20%
    13:00 +46°C° 0 mm 3 m/s 744 mmHg 17%
    14:00 +46°C° 0 mm 3 m/s 743 mmHg 14%
    15:00 +47°C° 0 mm 3 m/s 742 mmHg 11%
    16:00 +47°C° 0 mm 3 m/s 742 mmHg 11%
    17:00 +48°C° 0 mm 4 m/s 742 mmHg 11%
    18:00 +47°C° 0 mm 4 m/s 741 mmHg 11%
    19:00 +44°C° 0 mm 3 m/s 742 mmHg 13%
    20:00 +41°C° 0 mm 2 m/s 742 mmHg 16%
    21:00 +39°C° 0 mm 1 m/s 743 mmHg 18%
    22:00 +37°C° 0 mm 1 m/s 743 mmHg 19%
    23:00 +37°C° 0 mm 1 m/s 743 mmHg 20%

    28 Aprilie, Duminică

    Timp Temperatura Precipitaţii Vânt Presiune Umiditate
    00:00 +36°C° 0 mm 1 m/s 743 mmHg 20%
    01:00 +35°C° 0 mm 1 m/s 743 mmHg 23%
    02:00 +34°C° 0 mm 1 m/s 742 mmHg 25%
    03:00 +34°C° 0 mm 2 m/s 742 mmHg 27%
    04:00 +32°C° 0 mm 2 m/s 742 mmHg 30%
    05:00 +33°C° 0 mm 3 m/s 743 mmHg 32%
    06:00 +31°C° 0 mm 3 m/s 743 mmHg 35%
    07:00 +34°C° 0 mm 4 m/s 744 mmHg 36%
    08:00 +36°C° 0 mm 5 m/s 744 mmHg 36%
    09:00 +39°C° 0 mm 5 m/s 745 mmHg 36%
    10:00 +41°C° 0 mm 4 m/s 745 mmHg 31%
    11:00 +43°C° 0 mm 3 m/s 744 mmHg 25%
    12:00 +44°C° 0 mm 1 m/s 744 mmHg 19%
    13:00 +46°C° 0 mm 3 m/s 743 mmHg 16%
    14:00 +48°C° 0 mm 4 m/s 742 mmHg 12%
    15:00 +49°C° 0 mm 5 m/s 742 mmHg 9%
    16:00 +49°C° 0 mm 5 m/s 741 mmHg 9%
    17:00 +48°C° 0 mm 4 m/s 741 mmHg 8%
    18:00 +48°C° 0 mm 4 m/s 741 mmHg 7%
    19:00 +44°C° 0 mm 3 m/s 741 mmHg 10%
    20:00 +41°C° 0 mm 2 m/s 742 mmHg 12%
    21:00 +39°C° 0 mm 1 m/s 742 mmHg 14%
    22:00 +37°C° 0 mm 1 m/s 742 mmHg 15%
    23:00 +36°C° 0 mm 1 m/s 742 mmHg 15%

    29 Aprilie, Luni

    Timp Temperatura Precipitaţii Vânt Presiune Umiditate
    00:00 +35°C° 0 mm 1 m/s 743 mmHg 16%
    01:00 +35°C° 0 mm 2 m/s 742 mmHg 23%
    02:00 +35°C° 0 mm 2 m/s 742 mmHg 29%
    03:00 +34°C° 0 mm 3 m/s 742 mmHg 35%
    04:00 +33°C° 0 mm 3 m/s 742 mmHg 45%
    05:00 +33°C° 0 mm 3 m/s 743 mmHg 55%
    06:00 +32°C° 0 mm 4 m/s 743 mmHg 65%
    07:00 +34°C° 0 mm 4 m/s 743 mmHg 59%
    08:00 +36°C° 0 mm 5 m/s 744 mmHg 53%
    09:00 +37°C° 0 mm 5 m/s 745 mmHg 46%
    10:00 +40°C° 0 mm 4 m/s 744 mmHg 39%
    11:00 +42°C° 0 mm 3 m/s 744 mmHg 32%
    12:00 +44°C° 0 mm 3 m/s 744 mmHg 25%
    13:00 +45°C° 0 mm 3 m/s 744 mmHg 20%
    14:00 +48°C° 0 mm 4 m/s 743 mmHg 16%
    15:00 +49°C° 0 mm 5 m/s 742 mmHg 12%
    16:00 +49°C° 0 mm 5 m/s 742 mmHg 12%
    17:00 +48°C° 0 mm 5 m/s 741 mmHg 12%
    18:00 +48°C° 0 mm 5 m/s 741 mmHg 12%
    19:00 +44°C° 0 mm 4 m/s 741 mmHg 16%
    20:00 +42°C° 0 mm 3 m/s 742 mmHg 20%
    21:00 +39°C° 0 mm 2 m/s 742 mmHg 25%
    22:00 +38°C° 0 mm 2 m/s 742 mmHg 26%
    23:00 +37°C° 0 mm 1 m/s 742 mmHg 28%
    Arată mai mult